EN

Hourly Weather Bysyttah

Today, 15 April, Thursday

Time Temperature Precipitation Wind Pressure Humidity
00:00 -28°C° 0 mm 2 mps 761 mmHg 100%
01:00 -29°C° 0 mm 2 mps 761 mmHg 100%
02:00 -29°C° 0 mm 2 mps 761 mmHg 100%
03:00 -31°C° 0 mm 3 mps 761 mmHg 100%
04:00 -32°C° 0 mm 3 mps 760 mmHg 100%
05:00 -30°C° 0 mm 3 mps 760 mmHg 99%
06:00 -27°C° 0 mm 3 mps 760 mmHg 98%
07:00 -25°C° 0 mm 3 mps 760 mmHg 97%
08:00 -23°C° 0 mm 3 mps 759 mmHg 94%
09:00 -22°C° 0 mm 4 mps 759 mmHg 91%
10:00 -19°C° 0 mm 4 mps 758 mmHg 88%
11:00 -18°C° 0 mm 4 mps 758 mmHg 86%
12:00 -17°C° 0 mm 4 mps 757 mmHg 85%
13:00 -16°C° 0 mm 4 mps 757 mmHg 83%
14:00 -16°C° 0 mm 4 mps 757 mmHg 84%
15:00 -16°C° 0 mm 4 mps 756 mmHg 84%
16:00 -16°C° 0 mm 4 mps 756 mmHg 85%
17:00 -18°C° 0 mm 4 mps 756 mmHg 88%
18:00 -19°C° 0 mm 3 mps 756 mmHg 92%
19:00 -22°C° 0 mm 3 mps 755 mmHg 95%
20:00 -24°C° 0 mm 3 mps 755 mmHg 97%
21:00 -26°C° 0 mm 3 mps 755 mmHg 98%
22:00 -29°C° 0 mm 3 mps 755 mmHg 99%
23:00 -30°C° 0 mm 3 mps 754 mmHg 99%

Tomorrow, 16 April, Friday

Time Temperature Precipitation Wind Pressure Humidity
00:00 -28°C° 0 mm 2 mps 754 mmHg 99%
01:00 -29°C° 0 mm 2 mps 753 mmHg 99%
02:00 -29°C° 0 mm 2 mps 753 mmHg 99%
03:00 -29°C° 0 mm 2 mps 753 mmHg 99%
04:00 -27°C° 0 mm 1 mps 753 mmHg 99%
05:00 -24°C° 0 mm 1 mps 752 mmHg 98%
06:00 -22°C° 0 mm 1 mps 752 mmHg 98%
07:00 -20°C° 0 mm 1 mps 752 mmHg 97%
08:00 -18°C° 0 mm 1 mps 752 mmHg 93%
09:00 -17°C° 0 mm 0 mps 751 mmHg 89%
10:00 -15°C° 0 mm 0 mps 751 mmHg 86%
11:00 -14°C° 0 mm 1 mps 751 mmHg 84%
12:00 -13°C° 0 mm 1 mps 751 mmHg 82%
13:00 -11°C° 0 mm 1 mps 751 mmHg 81%
14:00 -11°C° 0 mm 1 mps 750 mmHg 80%
15:00 -10°C° 0 mm 1 mps 750 mmHg 80%
16:00 -12°C° 0 mm 2 mps 750 mmHg 79%
17:00 -13°C° 0 mm 2 mps 750 mmHg 83%
18:00 -15°C° 0 mm 2 mps 750 mmHg 88%
19:00 -17°C° 0 mm 2 mps 750 mmHg 92%
20:00 -17°C° 0 mm 1 mps 750 mmHg 94%
21:00 -19°C° 0 mm 1 mps 750 mmHg 97%
22:00 -22°C° 0 mm 1 mps 750 mmHg 99%
23:00 -23°C° 0 mm 1 mps 750 mmHg 99%

Day after tomorrow, 17 April, Saturday

Time Temperature Precipitation Wind Pressure Humidity
00:00 -24°C° 0 mm 1 mps 750 mmHg 99%
01:00 -27°C° 0 mm 1 mps 750 mmHg 99%
02:00 -27°C° 0 mm 1 mps 750 mmHg 100%
03:00 -28°C° 0 mm 1 mps 750 mmHg 100%
04:00 -29°C° 0 mm 1 mps 750 mmHg 100%
05:00 -25°C° 0 mm 1 mps 750 mmHg 99%
06:00 -25°C° 0 mm 2 mps 750 mmHg 99%
07:00 -21°C° 0 mm 2 mps 750 mmHg 99%
08:00 -18°C° 0 mm 2 mps 750 mmHg 95%
09:00 -16°C° 0 mm 2 mps 750 mmHg 91%
10:00 -15°C° 0 mm 3 mps 749 mmHg 86%
11:00 -13°C° 0 mm 3 mps 749 mmHg 84%
12:00 -12°C° 0 mm 4 mps 748 mmHg 81%
13:00 -12°C° 0 mm 5 mps 748 mmHg 79%
14:00 -11°C° 0 mm 5 mps 748 mmHg 81%
15:00 -11°C° 0 mm 5 mps 748 mmHg 83%
16:00 -10°C° 0 mm 6 mps 747 mmHg 86%
17:00 -11°C° 0 mm 5 mps 747 mmHg 87%
18:00 -11°C° 0 mm 5 mps 747 mmHg 88%
19:00 -11°C° 0 mm 5 mps 747 mmHg 89%
20:00 -12°C° 0 mm 5 mps 746 mmHg 90%
21:00 -13°C° 0 mm 5 mps 746 mmHg 91%
22:00 -14°C° 0 mm 4 mps 746 mmHg 91%
23:00 -15°C° 0 mm 4 mps 745 mmHg 91%

18 April, Sunday

Time Temperature Precipitation Wind Pressure Humidity
00:00 -16°C° 0 mm 4 mps 745 mmHg 91%
01:00 -16°C° 0 mm 3 mps 745 mmHg 91%
02:00 -17°C° 0 mm 3 mps 745 mmHg 92%
03:00 -18°C° 0 mm 3 mps 744 mmHg 94%
04:00 -19°C° 0 mm 3 mps 744 mmHg 95%
05:00 -17°C° 0 mm 3 mps 744 mmHg 93%
06:00 -15°C° 0 mm 3 mps 744 mmHg 91%
07:00 -14°C° 0 mm 4 mps 744 mmHg 88%
08:00 -11°C° 0 mm 4 mps 744 mmHg 86%
09:00 -9°C° 0 mm 4 mps 743 mmHg 83%
10:00 -8°C° 0 mm 4 mps 743 mmHg 81%
11:00 -7°C° 0 mm 4 mps 743 mmHg 80%
12:00 -5°C° 0 mm 4 mps 744 mmHg 80%
13:00 -4°C° 0 mm 3 mps 744 mmHg 80%
14:00 -4°C° 0 mm 3 mps 744 mmHg 80%
15:00 -3°C° 0 mm 2 mps 745 mmHg 81%
16:00 -2°C° 0 mm 2 mps 745 mmHg 81%
17:00 -3°C° 0 mm 2 mps 746 mmHg 84%
18:00 -4°C° 0 mm 2 mps 747 mmHg 87%
19:00 -5°C° 0 mm 2 mps 747 mmHg 90%
20:00 -7°C° 0 mm 2 mps 748 mmHg 91%
21:00 -9°C° 0 mm 2 mps 748 mmHg 92%
22:00 -10°C° 0 mm 2 mps 749 mmHg 93%
23:00 -12°C° 0 mm 2 mps 749 mmHg 93%

19 April, Monday

Time Temperature Precipitation Wind Pressure Humidity
00:00 -10°C° 0 mm 1 mps 750 mmHg 92%
01:00 -11°C° 0 mm 1 mps 750 mmHg 92%
02:00 -13°C° 0 mm 2 mps 751 mmHg 92%
03:00 -14°C° 0 mm 2 mps 751 mmHg 92%
04:00 -14°C° 0 mm 2 mps 752 mmHg 92%
05:00 -13°C° 0 mm 2 mps 753 mmHg 89%
06:00 -10°C° 0 mm 2 mps 753 mmHg 87%
07:00 -9°C° 0 mm 3 mps 754 mmHg 84%
08:00 -9°C° 0 mm 3 mps 755 mmHg 81%
09:00 -8°C° 0 mm 3 mps 756 mmHg 77%
10:00 -7°C° 0 mm 3 mps 757 mmHg 74%
11:00 -8°C° 0 mm 4 mps 757 mmHg 73%
12:00 -8°C° 0 mm 4 mps 758 mmHg 73%
13:00 -8°C° 0 mm 4 mps 759 mmHg 72%
14:00 -8°C° 0 mm 4 mps 759 mmHg 74%
15:00 -9°C° 0 mm 4 mps 760 mmHg 76%
16:00 -10°C° 0 mm 5 mps 761 mmHg 78%
17:00 -10°C° 0 mm 3 mps 762 mmHg 82%
18:00 -12°C° 0 mm 2 mps 763 mmHg 85%
19:00 -12°C° 0 mm 1 mps 764 mmHg 89%
20:00 -14°C° 0 mm 1 mps 764 mmHg 91%
21:00 -16°C° 0 mm 1 mps 765 mmHg 94%
22:00 -18°C° 0 mm 1 mps 766 mmHg 96%
23:00 -18°C° 0 mm 1 mps 766 mmHg 97%

20 April, Tuesday

Time Temperature Precipitation Wind Pressure Humidity
00:00 -19°C° 0 mm 1 mps 767 mmHg 98%
01:00 -23°C° 0 mm 2 mps 768 mmHg 99%
02:00 -20°C° 0 mm 1 mps 768 mmHg 99%
03:00 -21°C° 0 mm 1 mps 769 mmHg 99%
04:00 -22°C° 0 mm 1 mps 770 mmHg 99%
05:00 -19°C° 0 mm 1 mps 770 mmHg 96%
06:00 -16°C° 0 mm 1 mps 770 mmHg 93%
07:00 -13°C° 0 mm 1 mps 770 mmHg 90%
08:00 -11°C° 0 mm 1 mps 771 mmHg 87%
09:00 -10°C° 0 mm 2 mps 771 mmHg 83%
10:00 -8°C° 0 mm 2 mps 771 mmHg 80%
11:00 -8°C° 0 mm 3 mps 771 mmHg 79%
12:00 -7°C° 0 mm 3 mps 770 mmHg 78%
13:00 -7°C° 0 mm 4 mps 770 mmHg 78%
14:00 -7°C° 0 mm 4 mps 770 mmHg 79%
15:00 -7°C° 0 mm 5 mps 769 mmHg 81%
16:00 -8°C° 0 mm 6 mps 769 mmHg 83%
17:00 -8°C° 0 mm 6 mps 768 mmHg 83%
18:00 -9°C° 0 mm 6 mps 767 mmHg 84%
19:00 -11°C° 0 mm 7 mps 767 mmHg 84%
20:00 -11°C° 0 mm 7 mps 766 mmHg 84%
21:00 -11°C° 0 mm 7 mps 765 mmHg 84%
22:00 -11°C° 0 mm 7 mps 764 mmHg 85%
23:00 -11°C° 0 mm 7 mps 763 mmHg 84%
Show more

We Need Your Consent

Meteoprog and our Service Providers may store and access personal data such as cookies, device identifiers or other similar technologies on your device and process such data to personalise content and ads, as well as provide social media features and to analyse the traffic.

  • Store and/or access information on your device

    Cookies, device identifiers or other information can be stored or accessed on your device for the purposes indicated above.

  • Personalised ads and content, ad and content measurement, audience insights, and products development

    Ads and content can be personalised based on a profile. More data can be added to better personalise ads and content. Ad and content performance can be measured. Insights about the audience who saw the ads and content can be derived. Such data can be used to develop or improve user’s experience, systems and software.

By clicking ‘I Agree’ you will allow the use of indicated cookies, device identifiers, web beacons or other similar technologies. Your settings can be changed in the browser on your device.

For certain purposes, legitimate interests may be relied on, rather than consent. You can read more about this in our Privacy and Cookie Policy.